Bonaire, Netherlands

11:12 AM AST on June 23, 2017 (GMT -0400)
Flamingo

Weather History for TNCB - April, 2013

Change the Weather History Date:

Saturday, April 20, 2013

  Actual Average Record
Temperature  
Mean Temperature 83 °F -  
Max Temperature 87 °F 86 °F 93 °F (2007)
Min Temperature 79 °F 80 °F 77 °F (2011)
Cooling Degree Days 18    
Growing Degree Days 33 (Base 50)    
Moisture  
Dew Point 75 °F    
Average Humidity 78    
Maximum Humidity 89    
Minimum Humidity 58    
Precipitation  
Precipitation 0.00 in - - ()
Sea Level Pressure  
Sea Level Pressure 29.94 in    
Wind  
Wind Speed 11 mph ()    
Max Wind Speed 20 mph    
Max Gust Speed -    
Visibility 6.2 miles    
Events      
Averages and records for this station are not official NWS values.
T = Trace of Precipitation, MM = Missing Value Source: Averaged Metar Reports

Daily Weather History Graph

Daily Weather History Graph

Search for Another Location

Airport or City:

Trip Planner

Search our weather history database for the weather conditions in past years. The results will help you decide how hot, cold, wet, or windy it might be!

Date:

Astronomy

Apr. 20, 2013 Rise Set
Actual Time 6:18 AM AST 6:45 PM AST
Civil Twilight 5:56 AM AST 7:07 PM AST
Nautical Twilight 5:31 AM AST 7:32 PM AST
Astronomical Twilight 5:05 AM AST 7:58 PM AST
Moon 2:17 PM AST (4/20) 2:09 AM AST (4/20)
Length of Visible Light 13h 10m
Length of Day
12h 27m
Waxing Gibbous, 71% of the Moon is Illuminated
Apr 20
Waxing Gibbous
Apr 25
Full
May 2
Last Quarter
May 9
New
May 18
First Quarter

Hourly Weather History & Observations

Time (AST) Temp. Heat Index Dew Point Humidity Pressure Visibility Wind Dir Wind Speed Gust Speed Precip Events Conditions
12:00 AM 80.6 °F 86.2 °F 75.2 °F 84% 29.98 in - East 10.4 mph - N/A   Unknown
1:00 AM 78.8 °F - 75.2 °F 89% 29.95 in - East 10.4 mph - N/A   Unknown
2:00 AM 80 °F - 75 °F 80%  in - East 11.5 mph - -   Clear
2:00 AM 78.8 °F - 75.2 °F 89% 29.95 in - East 11.5 mph - N/A   Unknown
4:00 AM 78.8 °F - 75.2 °F 89% 29.92 in - East 10.4 mph - N/A   Unknown
5:00 AM 79 °F - 75 °F 83%  in - East 10.4 mph - -   Clear
5:00 AM 78.8 °F - 75.2 °F 89% 29.92 in - East 10.4 mph - N/A   Unknown
6:00 AM 78.8 °F - 75.2 °F 89% 29.92 in - East 11.5 mph - N/A   Unknown
7:00 AM 80.6 °F 86.2 °F 75.2 °F 84% 29.95 in - East 11.5 mph - N/A   Unknown
8:00 AM 81 °F - 75 °F 78%  in - East 13.8 mph - -   Clear
8:00 AM 80.6 °F 86.2 °F 75.2 °F 84% 29.95 in - East 13.8 mph - N/A   Unknown
9:00 AM 82.4 °F 89.5 °F 75.2 °F 79% 29.98 in - East 16.1 mph - N/A   Unknown
11:00 AM 86.0 °F 95.1 °F 75.2 °F 70% 29.98 in - ESE 17.3 mph - N/A   Unknown
12:00 PM 86.0 °F 93.4 °F 73.4 °F 66% 29.98 in - ESE 19.6 mph - N/A   Unknown
1:00 PM 87.8 °F 95.6 °F 73.4 °F 62% 29.95 in - East 17.3 mph - N/A   Unknown
2:00 PM 86 °F - 73 °F 58%  in - ESE 16.1 mph - -   Clear
2:00 PM 86.0 °F 93.4 °F 73.4 °F 66% 29.95 in - ESE 16.1 mph - N/A   Unknown
3:00 PM 86.0 °F 93.4 °F 73.4 °F 66% 29.92 in - East 17.3 mph - N/A   Unknown
4:00 PM 86.0 °F 93.4 °F 73.4 °F 66% 29.89 in - East 15.0 mph - N/A   Unknown
5:00 PM 84.2 °F 89.6 °F 71.6 °F 66% 29.86 in 6.2 mi ENE 18.4 mph - N/A   Partly Cloudy
6:00 PM 82.4 °F 88.2 °F 73.4 °F 74% 29.83 in 6.2 mi ENE 16.1 mph - N/A   Partly Cloudy
8:00 PM 80 °F - 75 °F 80%  in - East 9.2 mph - -   Clear
8:00 PM 80.6 °F 86.2 °F 75.2 °F 84% 29.92 in - East 9.2 mph - N/A   Unknown
9:00 PM 80.6 °F 86.2 °F 75.2 °F 84% 29.95 in - ENE 9.2 mph - N/A   Unknown
10:00 PM 80.6 °F 86.2 °F 75.2 °F 84% 29.98 in - East 8.1 mph - N/A   Unknown
11:00 PM 80.6 °F 86.2 °F 75.2 °F 84% 29.98 in - East 10.4 mph - N/A   Unknown